Regional Weather Roundup
Issued by NWS

Home | Current Version | Previous Version | Text Only | Print | Product List | Glossary Off
Versions: 1 2 3 4 5 6 7 8 9 10 11 12 13 14 15 16 17 18 19 20 21 22 23 24 25 26 27 28 29 30 31 32 33 34 35 36 37 38 39 40 41 42 43 44 45 46 47 48 49 50

000
ASUS43 KLSX 301607
RWRMO

WEATHER SUMMARY FOR MISSOURI
NATIONAL WEATHER SERVICE SPRINGFIELD MO
1100 AM CDT TUE JUN 30 2015

NOTE: "FAIR" INDICATES FEW OR NO CLOUDS BELOW 12,000 FEET WITH NO
       SIGNIFICANT WEATHER AND/OR OBSTRUCTIONS TO VISIBILITY.
       CURRENT SKY AND/OR WEATHER CONDITIONS ARE NOT AVAILABLE FOR
       CHILLICOTHE AND FARMINGTON.

MOZ001>031-035>038-043-044-053-054-301700-
...NORTHERN AND WESTERN MISSOURI...

CITY           SKY/WX    TMP DP  RH WIND       PRES   REMARKS
KANSAS CTY INT PTSUNNY   80  66  62 NW9       29.95S
KANSAS C DTWN  SUNNY     82  67  60 NW6       29.94R
LEE`S SUMMIT   SUNNY     80  66  62 W5        29.96S
ST JOSEPH      MOSUNNY   82  65  56 NW6       29.94F
CHILLICOTHE      N/A     80  68  66 CALM      29.93S
KIRKSVILLE     SUNNY     76  65  68 NW8       29.92S

$$
MOZ066>068-077>081-088>096-101>105-301700-
...SOUTHWEST MISSOURI...

CITY           SKY/WX    TMP DP  RH WIND       PRES   REMARKS
SPRINGFIELD    MOSUNNY   81  65  58 W13       29.99F
JOPLIN         SUNNY     80  69  69 SW5       30.00S

$$
MOZ032>034-039>042-045>050-055>058-069>072-301700-
...CENTRAL MISSOURI...

CITY           SKY/WX    TMP DP  RH WIND       PRES   REMARKS
COLUMBIA       SUNNY     79  68  69 W6        29.93F
JEFFERSON CITY SUNNY     77  67  71 VRB3      29.92F
ROLLA          SUNNY     75  68  78 SW7       29.94F
SEDALIA        MOSUNNY   81  67  62 NW7       29.96R
WHITEMAN AFB   PTSUNNY   80  67  63 W9        29.94S
WARRENSBURG    MOSUNNY   79  66  65 W5        29.95R
OSAGE BEACH    SUNNY     77  64  65 W6        29.95R

$$
MOZ051-052-059>065-301700-
...EAST CENTRAL MISSOURI...

CITY           SKY/WX    TMP DP  RH WIND       PRES   REMARKS
ST LOUIS INTL  MOSUNNY   81  67  62 W7        29.91F
SPIRIT OF STL  CLOUDY    78  70  76 W8        29.90F
ST CHARLES     SUNNY     76  68  76 SW5       29.89F

$$
MOZ072>076-082>087-097>100-106>115-301700-
...SOUTH CENTRAL AND SOUTHEAST MISSOURI...

CITY           SKY/WX    TMP DP  RH WIND       PRES   REMARKS
CAPE GIRARDEAU SUNNY     80  69  69 VRB6      29.92S
FARMINGTON     SUNNY     77  66  69 W5        29.98S
WEST PLAINS    SUNNY     78  65  63 W9        30.00S

$$



USA.gov is the U.S. government's official web portal to all federal, state and local government web resources and services.